Home   Weather   La-Chaux-de-Fonds   Past weeks

Flag for Switzerland Past Weather in La-Chaux-de-Fonds, Neuchâtel, Switzerland — Yesterday and Last 2 Weeks

Now
48 °F

Sunny.


Feels Like: 42 °F
Forecast: 32 / 43 °F
Wind: 18 mph from Southwest

Location: Les Eplatures

Current Time: Feb 27, 2017 at 7:30:38 pm

Latest Report: Feb 27, 2017 at 6:50 pm


Visibility: 10 mi

Pressure: 29.59 "Hg (26.21 "Hg at 1000m altitude)

Humidity: 54%

Dew Point: 32 °F

Location of La-Chaux-de-FondsLocation

Past Weather in La-Chaux-de-Fonds — Graph

°F

La-Chaux-de-Fonds Temperature Yesterday

Maximum temperature yesterday: 50 °F (at 1:20 pm)
Minimum temperature yesterday: 28 °F (at 12:50 am)
Average temperature yesterday: 37 °F

High & Low Weather Summary for the Past Weeks

 TemperatureHumidityPressure
High57 °F (Feb 23, 12:50 pm)100% (Feb 15, 4:20 am)30.54 "Hg (Feb 15, 4:20 am)
Low18 °F (Feb 25, 3:20 am)25% (Feb 23, 2:20 pm)29.59 "Hg (Feb 27, 6:20 pm)
Average37 °F81%30.16 "Hg
* Reported Feb 12 6:20 pm — Feb 27 6:20 pm, La-Chaux-de-Fonds, Weather by CustomWeather, © 2017

Note: Actual official high and low records may vary slightly from our data, if they occured in-between our weather recording intervals... More about our weather records

Advertising

La-Chaux-de-Fonds Weather History for the Previous 24 Hours

Scroll right to see more
 ConditionsComfort  
Time TempWeatherWind HumidityBarometerVisibility
6:20 pm
Mon, Feb 27
48 °FClear.17 mph54%29.59 "HgN/A
5:50 pm48 °FCool.15 mph54%29.62 "HgN/A
5:20 pm50 °FPassing clouds.21 mph47%29.62 "HgN/A
4:50 pm52 °FPassing clouds.18 mph44%29.62 "HgN/A
4:20 pm52 °FPassing clouds.18 mph47%29.65 "HgN/A
3:50 pm52 °FScattered clouds.14 mph50%29.65 "HgN/A
3:20 pm54 °FPassing clouds.18 mph44%29.65 "HgN/A
2:50 pm54 °FScattered clouds.17 mph44%29.68 "HgN/A
2:20 pm52 °FScattered clouds.17 mph47%29.68 "HgN/A
1:50 pm52 °FPassing clouds.17 mph44%29.71 "HgN/A
1:20 pm52 °FPassing clouds.16 mph47%29.71 "HgN/A
12:50 pm54 °FPassing clouds.10 mph47%29.74 "HgN/A
12:20 pm50 °FPassing clouds.10 mph47%29.77 "HgN/A
11:50 am52 °FCool.12 mph47%29.77 "HgN/A
11:20 am50 °FCool.14 mph43%29.77 "HgN/A
10:50 am50 °FPassing clouds.14 mph40%29.77 "HgN/A
10:20 am46 °FPassing clouds.8 mph43%29.80 "HgN/A
9:50 am45 °FPassing clouds.8 mph46%29.80 "HgN/A
9:20 am43 °FPassing clouds.5 mph53%29.80 "HgN/A
8:50 am39 °FSunny.3 mph56%29.83 "Hg10 mi
8:20 am37 °FSunny.1 mph70%29.83 "Hg10 mi
7:50 am36 °FPassing clouds.2 mph75%29.83 "HgN/A
7:20 am32 °FPassing clouds.No wind80%29.83 "HgN/A
6:50 am30 °FPassing clouds.2 mph86%29.86 "HgN/A
6:20 am34 °FPassing clouds.2 mph81%29.86 "HgN/A
5:50 am32 °FClear.2 mph80%29.89 "Hg10 mi
5:20 am28 °FClear.2 mph86%29.89 "HgN/A
4:50 am30 °FClear.3 mph75%29.89 "Hg10 mi
4:20 am28 °FClear.3 mph80%29.89 "Hg10 mi
3:50 am30 °FClear.2 mph75%29.92 "Hg10 mi
3:20 am30 °FClear.2 mph80%29.92 "Hg10 mi
2:50 am28 °FClear.2 mph86%29.95 "Hg10 mi
2:20 am28 °FClear.2 mph80%29.95 "Hg10 mi
1:50 am28 °FClear.2 mph80%29.95 "Hg10 mi
1:20 am32 °FClear.3 mph69%29.95 "Hg10 mi
12:50 am32 °FClear.5 mph69%29.98 "Hg10 mi
12:20 am30 °FClear.2 mph80%29.98 "Hg10 mi
11:50 pm
Sun, Feb 26
32 °FClear.2 mph75%29.98 "Hg10 mi
11:20 pm32 °FClear.2 mph75%29.98 "Hg10 mi
10:50 pm32 °FClear.2 mph69%30.01 "Hg10 mi
10:20 pm30 °FClear.No wind75%30.01 "Hg10 mi
9:50 pm32 °FClear.No wind69%30.01 "Hg10 mi
9:20 pm34 °FClear.No wind60%30.01 "Hg10 mi
8:50 pm32 °FChilly.1 mph69%30.01 "HgN/A
8:20 pm36 °FClear.2 mph56%30.01 "HgN/A
7:50 pm36 °FClear.1 mph65%30.01 "Hg10 mi
7:20 pm37 °FChilly.3 mph52%30.01 "HgN/A
Weather by CustomWeather, © 2017

See weather overviewHow to use our weather pages